Hourly Data Report for May 25, 2020

TORONTO CITY
ONTARIO
Current Station Operator: ECCC - MSC

43°40'00.000" N
79°24'00.000" W
112.50 m
6158355
71508
XTO

Download Data

Hourly Data (May 2020)
Hourly Data Report for May 25, 2020
TIME
LST
Temp Definition
°C
Dew Point Definition
°C
Rel Hum Definition
%
Precip. Amount Definition
mm

Wind Dir Definition
10's deg

Wind Spd Definition
km/h
Visibility Definition
km
Stn Press Definition
kPa
Hmdx Definition


Wind Chill Definition


Weather Definition


00:00 19.9 13.2 65 0.0       100.01     LegendNANA
01:00 19.0 13.5 70 0.0       100.03     LegendNANA
02:00 19.6 15.1 75 0.0       100.08     LegendNANA
03:00 20.1 14.9 72 0.0       100.10     LegendNANA
04:00 19.5 15.2 76 0.0       100.15     LegendNANA
05:00 18.5 14.9 80 0.0       100.20     LegendNANA
06:00 18.9 15.1 79 0.0       100.23     LegendNANA
07:00 20.3 15.5 74 0.0       100.26 25   LegendNANA
08:00 22.5 15.4 64 0.0       100.28 27   LegendNANA
09:00 23.5 15.6 61 0.0       100.35 28   LegendNANA
10:00 24.8 15.6 57 0.0       100.40 29   LegendNANA
11:00 26.3 16.1 53 0.0       100.43 31   LegendNANA
12:00 27.3 15.7 49 0.2       100.40 32   LegendNANA
13:00 28.6 16.5 48 0.2       100.38 34   LegendNANA
14:00 29.0 16.5 47 0.0       100.35 34   LegendNANA
15:00 28.8 15.7 45 0.2       100.31 33   LegendNANA
16:00 29.0 16.8 48 0.2       100.26 34   LegendNANA
17:00 26.8 15.7 51 0.5       100.29 31   LegendNANA
18:00 25.6 14.5 50 0.0       100.26 29   LegendNANA
19:00 23.7 14.6 57 0.0       100.28 27   LegendNANA
20:00 23.2 15.0 60 0.0       100.32 27   LegendNANA
21:00 22.3 14.7 62 0.0       100.37 26   LegendNANA
22:00 21.9 14.9 65 0.0       100.40 26   LegendNANA
23:00 20.9 14.9 69 0.0       100.42 25   LegendNANA

Notes on Data Quality.

Legend

  • E = Estimated
  • M = Missing
  • NA = Not Available*
  • [empty] = Indicates an unobserved value
Date modified: